| time (UTC) | temp F | wind direction | speed MPH | gust MPH | rain 1hr in | rain 24hr in | rain mn in | humidity % | barometer mb |
| 20260510124509 | 64 | 121 | 4.0 | 13.0 | 0.02 | 0.96 | 0.96 | 92 | 1013.1 |
| 20260510123008 | 64 | 80 | 13.0 | 21.0 | 0.04 | 0.96 | 0.96 | 92 | 1012.7 |
| 20260510121506 | 63 | 46 | 17.0 | 25.0 | 0.06 | 0.96 | 0.96 | 92 | 1013.0 |
| 20260510120005 | 63 | 49 | 14.0 | 36.0 | 0.06 | 0.96 | 0.96 | 91 | 1011.9 |
| 20260510114505 | 64 | 134 | 10.0 | 16.0 | 0.07 | 0.93 | 0.93 | 91 | 1012.7 |
| 20260510113001 | 64 | 115 | 10.0 | 15.0 | 0.37 | 0.91 | 0.91 | 91 | 1014.1 |
| 20260510111557 | 64 | 87 | 12.0 | 17.0 | 0.88 | 0.90 | 0.90 | 90 | 1014.4 |
| 20260510110058 | 64 | 76 | 9.0 | 14.0 | 0.89 | 0.90 | 0.90 | 90 | 1015.1 |
| 20260510104554 | 64 | 55 | 9.0 | 21.0 | 0.85 | 0.86 | 0.86 | 89 | 1015.3 |
| 20260510103052 | 65 | 27 | 9.0 | 29.0 | 0.52 | 0.52 | 0.52 | 89 | 1015.5 |
| 20260510101555 | 66 | 301 | 8.0 | 24.0 | 0.02 | 0.02 | 0.02 | 87 | 1015.6 |
| 20260510100041 | 67 | 202 | 2.0 | 6.0 | 0.01 | 0.01 | 0.01 | 84 | 1013.3 |
| 20260510094540 | 68 | 79 | 6.0 | 15.0 | 0.01 | 0.01 | 0.01 | 83 | 1012.7 |
| 20260510093038 | 68 | 70 | 6.0 | 15.0 | 0.00 | 0.00 | 0.00 | 83 | 1012.9 |
| 20260510091540 | 68 | 34 | 7.0 | 17.0 | 0.00 | 0.00 | 0.00 | 83 | 1013.0 |
| 20260510090034 | 68 | 81 | 7.0 | 22.0 | 0.00 | 0.00 | 0.00 | 84 | 1013.1 |
| 20260510084534 | 69 | 55 | 11.0 | 27.0 | 0.00 | 0.00 | 0.00 | 86 | 1012.7 |
| 20260510083026 | 70 | 59 | 9.0 | 14.0 | 0.00 | 0.00 | 0.00 | 88 | 1012.1 |
| 20260510081523 | 70 | 63 | 8.0 | 12.0 | 0.00 | 0.00 | 0.00 | 87 | 1011.8 |
| 20260510080031 | 71 | 110 | 4.0 | 6.0 | 0.00 | 0.00 | 0.00 | 87 | 1011.3 |
| 20260510074518 | 71 | 94 | 3.0 | 6.0 | 0.00 | 0.00 | 0.00 | 87 | 1011.0 |
| 20260510073019 | 71 | 95 | 2.0 | 4.0 | 0.00 | 0.00 | 0.00 | 87 | 1011.0 |
| 20260510071514 | 71 | 96 | 2.0 | 6.0 | 0.00 | 0.00 | 0.00 | 87 | 1010.8 |
| 20260510070012 | 71 | 40 | 4.0 | 9.0 | 0.00 | 0.00 | 0.00 | 87 | 1010.7 |
| 20260510064529 | 72 | 107 | 4.0 | 9.0 | 0.00 | 0.00 | 0.00 | 87 | 1010.0 |
| 20260510063007 | 72 | 118 | 4.0 | 9.0 | 0.00 | 0.00 | 0.00 | 87 | 1010.0 |
| 20260510061505 | 72 | 148 | 6.0 | 10.0 | 0.00 | 0.00 | 0.00 | 87 | 1009.8 |
| 20260510060008 | 72 | 140 | 4.0 | 9.0 | 0.00 | 0.00 | 0.00 | 87 | 1010.1 |
| 20260510054605 | 73 | 153 | 5.0 | 11.0 | 0.00 | 0.02 | 0.00 | 87 | 1009.9 |
| 20260510053056 | 73 | 142 | 5.0 | 12.0 | 0.00 | 0.02 | 0.00 | 87 | 1010.0 |
| 20260510051557 | 73 | 146 | 7.0 | 12.0 | 0.00 | 0.02 | 0.00 | 87 | 1009.9 |
| 20260510050051 | 74 | 167 | 5.0 | 15.0 | 0.00 | 0.02 | 0.00 | 87 | 1009.8 |
| 20260510044548 | 74 | 158 | 7.0 | 16.0 | 0.00 | 0.20 | 0.02 | 86 | 1009.7 |
| 20260510043047 | 74 | 149 | 8.0 | 19.0 | 0.00 | 0.20 | 0.02 | 86 | 1009.3 |
| 20260510041547 | 75 | 164 | 8.0 | 15.0 | 0.00 | 0.20 | 0.02 | 85 | 1009.2 |
| 20260510040048 | 75 | 151 | 7.0 | 15.0 | 0.00 | 0.20 | 0.02 | 84 | 1009.2 |
| 20260510034647 | 75 | 146 | 9.0 | 15.0 | 0.00 | 0.20 | 0.02 | 84 | 1009.4 |
| 20260510033051 | 76 | 149 | 8.0 | 14.0 | 0.00 | 0.20 | 0.02 | 83 | 1009.6 |
| 20260510031544 | 76 | 103 | 7.0 | 12.0 | 0.00 | 0.20 | 0.02 | 82 | 1009.5 |
| 20260510030143 | 76 | 123 | 5.0 | 10.0 | 0.00 | 0.20 | 0.02 | 80 | 1009.4 |
| 20260510024543 | 77 | 113 | 5.0 | 10.0 | 0.00 | 0.20 | 0.02 | 79 | 1009.2 |
| 20260510023042 | 77 | 128 | 4.0 | 10.0 | 0.00 | 0.20 | 0.02 | 78 | 1009.0 |
| 20260510021545 | 78 | 125 | 6.0 | 11.0 | 0.00 | 0.20 | 0.02 | 77 | 1008.8 |
| 20260510020041 | 78 | 133 | 6.0 | 11.0 | 0.00 | 0.20 | 0.02 | 77 | 1008.7 |
| 20260510014543 | 79 | 114 | 5.0 | 10.0 | 0.00 | 0.20 | 0.02 | 75 | 1008.5 |
| 20260510013039 | 79 | 113 | 6.0 | 8.0 | 0.00 | 0.20 | 0.02 | 74 | 1008.4 |
| 20260510011540 | 80 | 119 | 5.0 | 9.0 | 0.00 | 0.20 | 0.02 | 73 | 1008.3 |
| 20260510010044 | 81 | 119 | 5.0 | 11.0 | 0.00 | 0.20 | 0.02 | 72 | 1008.1 |
| 20260510004539 | 82 | 114 | 7.0 | 11.0 | 0.00 | 0.20 | 0.02 | 71 | 1007.9 |
| 20260510003041 | 83 | 109 | 6.0 | 11.0 | 0.00 | 0.20 | 0.02 | 69 | 1007.8 |
| 20260510001538 | 85 | 89 | 7.0 | 11.0 | 0.00 | 0.20 | 0.02 | 66 | 1007.6 |
| 20260510000036 | 86 | 104 | 6.0 | 12.0 | 0.00 | 0.20 | 0.02 | 65 | 1007.4 |
| 20260509234538 | 88 | 91 | 7.0 | 13.0 | 0.00 | 0.20 | 0.02 | 64 | 1007.3 |
| 20260509233035 | 88 | 92 | 6.0 | 8.0 | 0.00 | 0.20 | 0.02 | 61 | 1007.1 |
| 20260509231535 | 89 | 105 | 4.0 | 7.0 | 0.00 | 0.20 | 0.02 | 60 | 1007.1 |
| 20260509230033 | 90 | 100 | 4.0 | 8.0 | 0.00 | 0.20 | 0.02 | 61 | 1007.2 |
| 20260509224532 | 89 | 134 | 2.0 | 6.0 | 0.00 | 0.20 | 0.02 | 61 | 1007.1 |
| 20260509223030 | 89 | 79 | 2.0 | 8.0 | 0.00 | 0.20 | 0.02 | 62 | 1007.1 |
| 20260509221529 | 88 | 11 | 0.0 | 5.0 | 0.00 | 0.20 | 0.02 | 63 | 1007.1 |
| 20260509220038 | 88 | 224 | 0.0 | 5.0 | 0.00 | 0.20 | 0.02 | 64 | 1007.1 |
| 20260509214531 | 89 | 280 | 2.0 | 6.0 | 0.00 | 0.20 | 0.02 | 62 | 1007.2 |
| 20260509213023 | 89 | 52 | 2.0 | 4.0 | 0.00 | 0.20 | 0.02 | 65 | 1007.4 |
| 20260509211521 | 88 | 93 | 0.0 | 6.0 | 0.00 | 0.20 | 0.02 | 68 | 1007.5 |
| 20260509210015 | 87 | 113 | 2.0 | 6.0 | 0.00 | 0.20 | 0.02 | 70 | 1007.6 |
| 20260509204514 | 86 | 67 | 3.0 | 8.0 | 0.00 | 0.20 | 0.02 | 70 | 1007.8 |
| 20260509203023 | 86 | 115 | 1.0 | 3.0 | 0.00 | 0.20 | 0.02 | 70 | 1008.1 |
| 20260509201512 | 86 | 146 | 3.0 | 7.0 | 0.00 | 0.20 | 0.02 | 72 | 1008.2 |
| 20260509200008 | 85 | 41 | 0.0 | 5.0 | 0.00 | 0.20 | 0.02 | 71 | 1008.4 |
| 20260509194506 | 85 | 73 | 6.0 | 9.0 | 0.00 | 0.20 | 0.02 | 73 | 1008.5 |
| 20260509193004 | 84 | 77 | 5.0 | 8.0 | 0.00 | 0.20 | 0.02 | 74 | 1008.7 |
| 20260509191502 | 84 | 76 | 5.0 | 8.0 | 0.00 | 0.20 | 0.02 | 76 | 1008.8 |
| 20260509190059 | 83 | 128 | 1.0 | 6.0 | 0.00 | 0.20 | 0.02 | 76 | 1009.0 |
| 20260509184557 | 83 | 360 | 1.0 | 3.0 | 0.00 | 0.20 | 0.02 | 76 | 1009.0 |
| 20260509183105 | 83 | 100 | 1.0 | 4.0 | 0.00 | 0.20 | 0.02 | 77 | 1009.0 |
| 20260509181555 | 82 | 128 | 0.0 | 6.0 | 0.00 | 0.20 | 0.02 | 78 | 1009.2 |
| 20260509180052 | 82 | 340 | 3.0 | 7.0 | 0.00 | 0.20 | 0.02 | 78 | 1009.3 |
| 20260509174551 | 80 | 190 | 4.0 | 8.0 | 0.00 | 0.20 | 0.02 | 79 | 1009.3 |
| 20260509173046 | 79 | 313 | 1.0 | 6.0 | 0.00 | 0.20 | 0.02 | 82 | 1009.5 |
| 20260509171545 | 79 | 5 | 0.0 | 6.0 | 0.00 | 0.20 | 0.02 | 83 | 1009.6 |
| 20260509170040 | 78 | 285 | 0.0 | 3.0 | 0.00 | 0.20 | 0.02 | 83 | 1009.7 |
| 20260509164538 | 78 | 144 | 0.0 | 5.0 | 0.00 | 0.20 | 0.02 | 84 | 1009.8 |
| 20260509163044 | 77 | 173 | 1.0 | 4.0 | 0.00 | 0.20 | 0.02 | 86 | 1009.9 |
| 20260509161542 | 77 | 209 | 4.0 | 7.0 | 0.00 | 0.20 | 0.02 | 86 | 1009.9 |
| 20260509160034 | 76 | 235 | 2.0 | 8.0 | 0.00 | 0.20 | 0.02 | 88 | 1009.8 |
| 20260509154529 | 75 | 173 | 5.0 | 8.0 | 0.00 | 0.20 | 0.02 | 89 | 1009.8 |
| 20260509153042 | 75 | 219 | 4.0 | 7.0 | 0.00 | 0.20 | 0.02 | 91 | 1009.7 |
| 20260509151524 | 74 | 155 | 3.0 | 6.0 | 0.00 | 0.20 | 0.02 | 92 | 1009.6 |
| 20260509150028 | 73 | 132 | 0.0 | 5.0 | 0.00 | 0.20 | 0.02 | 93 | 1009.6 |
| 20260509144515 | 72 | 114 | 4.0 | 7.0 | 0.00 | 0.20 | 0.02 | 92 | 1009.6 |
| 20260509143013 | 72 | 132 | 3.0 | 7.0 | 0.00 | 0.20 | 0.02 | 92 | 1009.6 |
| 20260509141512 | 71 | 117 | 2.0 | 5.0 | 0.00 | 0.20 | 0.02 | 92 | 1009.7 |
| 20260509140006 | 70 | 126 | 2.0 | 4.0 | 0.00 | 0.20 | 0.02 | 92 | 1009.9 |
| 20260509134503 | 69 | 125 | 2.0 | 4.0 | 0.00 | 0.20 | 0.02 | 91 | 1010.1 |
| 20260509133005 | 68 | 126 | 2.0 | 4.0 | 0.00 | 0.20 | 0.02 | 91 | 1010.2 |
| 20260509131502 | 68 | 122 | 3.0 | 7.0 | 0.00 | 0.20 | 0.02 | 91 | 1010.2 |
| 20260509130101 | 67 | 97 | 3.0 | 6.0 | 0.00 | 0.20 | 0.02 | 91 | 1010.5 |